THEMIS D

Last updated on Mon Nov 03 2025 00:02:46 GMT+0000 (Coordinated Universal Time)

1 30797U 07004D 25306.31526080 .00000055 00000+0 00000+0 0 9996 2 30797 4.5812 90.0633 8395927 196.4597 232.2263 0.87836348 39080
UTC large
Height (km)
Speed (km/s)
/
Latitude / Longitude
Inclination (degrees)
Orbital Period (minutes)
Azimuth
Elevation
Range (km)
Doppler Factor

Next 0 passes for location: London (51.5072 / 0.1276)

Sorry there are no passes over London.